Location: Newark
(44.6768°N, 22.5302°E)
Time: 07:34:05
(UTC+00:00)

VELOX 1 - Visible Passes

Search period start: 25 June 2022 00:00
Search period end: 05 July 2022 00:00
Orbit: 625 x 638 km, 98.4° (Epoch: 24 June)

Date Brightness Start Highest point End Pass type
(mag) Time Alt. Az. Time Alt. Az. Time Alt. Az.
27 Jun ? 01:26:37 10° E 01:28:18 12° ENE 01:29:58 10° NE visible
28 Jun ? 01:45:56 10° ESE 01:48:57 18° ENE 01:51:58 10° NNE visible
29 Jun ? 02:05:55 10° SE 02:09:39 28° ENE 02:13:25 10° N visible
02 Jul ? 01:34:08 10° E 01:36:24 14° ENE 01:38:41 10° NNE visible
03 Jul ? 01:53:44 10° ESE 01:57:03 21° ENE 02:00:23 10° NNE visible
